Location: Unspecified
(43.4354°N, 0.0000°E)
Time: 04:54:47
(UTC+00:00)

S-56A Canister/Altair - Pass Details

Date: 25 June 2019
Orbit: 632 x 2500 km, 38.9° (Epoch: 21 July)

Event Time Altitude Azimuth Distance (km) Brightness Sun altitude
Rises 20:10:22 0° 277° (W) 3,912 12.3 -4.6°
Reaches altitude 10° 20:14:02 10° 263° (W) 2,651 11.0 -5.1°
Maximum altitude 20:18:29 22° 215° (SW) 1,669 9.2 -5.7°
Drops below altitude 10° 20:22:09 10° 165° (SSE) 2,130 9.3 -6.2°
Enters shadow 20:23:22 - 155° (SSE) 2,488 9.6 -6.4°
Sets 20:24:45 0° 148° (SSE) 2,949 - -6.6°
